Find Starlink 32849

NORAD ID: 62872 Int'l Des: 2025-022 Owner: SPXS Country: US Constellation: starlink operational
LEOCIRCULAR

現在のビュー

3D地球を読み込み中...

About Starlink 32849

Starlink 32849 (NORAD 62872) is a starlink constellation satellite (v2 mini) launched Feb 2, 2025 by SPXS of US. It operates in LEO, CIRCULAR orbit with a mass of 730.00 kg.

Starlink 32849について

説明を読み込み中...

次回通過

Passes for default location (London). Set your location on the main map for personalized predictions.

高度履歴

Loading altitude history...

軌道要素

1 62872U 25022U 26170.29079379 .00014581 00000-0 44175-3 0 9991
2 62872 53.1616 17.1323 0001133 85.7055 274.4077 15.34406618 77467
Epoch: Jun 19, 2026 • Age: 15 hours

現在のステータス

高度 462.9 km
速度 7.64 km/s
衛星直下点 21.97°N, 56.98°W
打ち上げ日 Feb 2, 2025
運用期間 1.3 years
タイプ internet

技術仕様

分類 Payload
質量 730.00 kg
乾燥質量 700.00 kg
総質量 730.00 kg
長さ 0.30 m
直径 4.10 m
スパン 29.00 m
形状 Box + pan
製造者 SPXS
バスタイプ Starlink V2M
フェーズステータス In Orbit
所有者/国 SPXS/US

Most Searched